Location: Prairie State College
(41.5244°N, 87.6382°W)
Time: 04:07:53
(UTC-05:00)

Amateur Radio Satellites - All Passes

Search period start: 31 October 2014 03:37
Search period end: 01 November 2014 03:37
Location: Prairie State College, 41.5244°N, 87.6382°W

Satellite Date Start Highest point End Downlink Frequencies (MHz)
Time Altitude Azimuth
Oscar 19 31 Oct 03:44:38 03:48:30 22° 296° (WNW) 03:52:23 437.125 CW, 437.150 USB
AO-7 31 Oct 03:59:20 04:05:52 25° 93° (E) 04:12:20 29.400 - 29.500 MHz
RS-15 31 Oct 04:13:11 04:22:50 32° 32° (NNE) 04:32:44 29.354 - 29.394 USB, Beacon 29.352 USB
AO-27 31 Oct 04:19:28 04:23:44 26° 295° (WNW) 04:27:59 436.795 MHz FM
Gurwin Techsat 1B 31 Oct 04:31:56 04:36:46 36° 292° (WNW) 04:41:35 435.225 FM
TMSAT-1 31 Oct 04:38:30 04:43:28 42° 291° (WNW) 04:48:25 436.925 FM
JAS-1B 31 Oct 04:39:03 04:43:36 19° 301° (WNW) 04:48:36 435.800 - 435.900 CW/SSB
Sapphire 31 Oct 04:52:36 04:55:10 13° 322° (NW) 04:57:44 437.095 MHz 1200 baud AX-25 AFSK
OPAL 31 Oct 04:54:32 04:59:34 61° 70° (ENE) 05:04:33 ?
Uribyol 2 31 Oct 05:06:24 05:07:11 10° 304° (WNW) 05:07:57 436.500 FM
STRAND 1 31 Oct 05:15:08 05:16:56 12° 58° (ENE) 05:18:45 ?
Uosat F 31 Oct 05:21:31 05:26:36 76° 103° (ESE) 05:31:37 435.120 FM
JAS-2 31 Oct 05:41:17 05:48:43 43° 96° (E) 05:55:52 435.800 - 435.900 CW/SSB, 435.910 FM
Saudisat 1A 31 Oct 05:44:20 05:48:32 48° 118° (ESE) 05:52:47 436.775 MHz
AO-7 31 Oct 05:51:00 05:59:17 72° 292° (WNW) 06:07:34 29.400 - 29.500 MHz
PANSAT 31 Oct 05:51:33 05:52:56 12° 179° (S) 05:54:19 not established
RS-15 31 Oct 06:25:36 06:36:51 89° 58° (ENE) 06:48:35 29.354 - 29.394 USB, Beacon 29.352 USB
OPAL 31 Oct 06:35:43 06:38:48 16° 266° (W) 06:41:53 ?
Hamsat 31 Oct 06:48:04 06:52:18 84° 283° (WNW) 06:56:33 145.90 MHz
STRAND 1 31 Oct 06:50:10 06:55:19 87° 75° (ENE) 07:00:30 ?
Uosat F 31 Oct 07:02:08 07:04:44 14° 300° (WNW) 07:07:19 435.120 FM
MaSat-1 31 Oct 07:13:59 07:15:57 20° 57° (ENE) 07:17:49 437.345 MHz
Saudisat 1A 31 Oct 07:24:56 07:28:21 22° 316° (NW) 07:31:47 436.775 MHz
JAS-2 31 Oct 07:26:20 07:33:37 43° 294° (WNW) 07:40:44 435.800 - 435.900 CW/SSB, 435.910 FM
AO-7 31 Oct 07:45:45 07:50:40 17° 312° (NW) 07:55:36 29.400 - 29.500 MHz
SO-67 31 Oct 07:52:11 07:55:38 70° 101° (E) 07:59:04 435.3500 MHz FM
STRAND 1 31 Oct 08:34:02 08:35:10 11° 272° (W) 08:36:17 ?
HO-68 31 Oct 08:37:13 08:42:20 20° 91° (E) 08:47:24 435.675 MHz FM
RS-15 31 Oct 08:39:38 08:47:48 24° 259° (WSW) 08:56:16 29.354 - 29.394 USB, Beacon 29.352 USB
Oscar 11 31 Oct 09:30:00 09:32:15 14° 91° (E) 09:34:29 145.825 FM, Beacon 2401.500 USB
ISS 31 Oct 09:39:17 09:42:01 24° 134° (SE) 09:44:45 145.800 FM
KITSAT 1 31 Oct 09:43:35 09:49:37 24° 104° (ESE) 09:55:39 435.175 FM
Sapphire 31 Oct 10:10:48 10:14:30 18° 42° (NE) 10:18:11 437.095 MHz 1200 baud AX-25 AFSK
HO-68 31 Oct 10:23:29 10:30:40 74° 289° (WNW) 10:37:49 435.675 MHz FM
UKube-1 31 Oct 10:29:16 10:33:38 64° 102° (ESE) 10:37:56 145.840 MHz, 145.915 MHz
PCSat 31 Oct 10:32:01 10:36:35 27° 48° (NE) 10:41:07 145.825 MHz
ZACube-1 31 Oct 10:38:15 10:42:02 32° 97° (E) 10:45:45 437.345 MHz
Oscar 11 31 Oct 11:04:32 11:08:44 51° 287° (WNW) 11:12:54 145.825 FM, Beacon 2401.500 USB
SO-50 31 Oct 11:11:53 11:16:18 60° 119° (ESE) 11:20:51 436.795 FM
ISS 31 Oct 11:15:22 11:18:33 42° 331° (NNW) 11:21:45 145.800 FM
FUNcube-1 31 Oct 11:20:53 11:25:05 81° 284° (WNW) 11:29:13 145.950 - 145.970 MHz USB
KITSAT 1 31 Oct 11:36:07 11:44:11 76° 303° (WNW) 11:52:18 435.175 FM
JAS-1B 31 Oct 11:48:52 11:49:49 10° 53° (NE) 11:50:46 435.800 - 435.900 CW/SSB
Sapphire 31 Oct 11:53:09 11:58:37 82° 242° (WSW) 12:04:02 437.095 MHz 1200 baud AX-25 AFSK
UOSAT-12 31 Oct 11:57:55 12:00:58 18° 110° (ESE) 12:04:02 437.025 FM, 437.400 FM
UKube-1 31 Oct 12:07:16 12:09:16 13° 298° (WNW) 12:11:16 145.840 MHz, 145.915 MHz
HO-68 31 Oct 12:13:21 12:17:11 15° 308° (NW) 12:21:00 435.675 MHz FM
PCSat 31 Oct 12:15:01 12:20:15 50° 247° (WSW) 12:25:26 145.825 MHz
ZACube-1 31 Oct 12:15:04 12:18:14 21° 293° (WNW) 12:21:22 437.345 MHz
Oscar 16 31 Oct 12:30:36 12:34:41 24° 65° (ENE) 12:38:45 437.025 USB, Beacon 2401.1428
ISS 31 Oct 12:53:44 12:55:54 16° 351° (N) 12:58:04 145.800 FM
SO-50 31 Oct 12:53:55 12:57:16 20° 319° (NW) 13:00:41 436.795 FM
Uribyol 2 31 Oct 13:03:40 13:07:34 22° 63° (ENE) 13:11:28 436.500 FM
AO-Echo 31 Oct 13:05:54 13:10:00 26° 65° (ENE) 13:14:12 ?
ITAMSAT 1 31 Oct 13:11:22 13:15:28 24° 64° (ENE) 13:19:34 435.822 SSB
Oscar 19 31 Oct 13:21:30 13:26:36 69° 74° (ENE) 13:31:42 437.125 CW, 437.150 USB
JAS-1B 31 Oct 13:33:42 13:39:27 78° 74° (ENE) 13:45:12 435.800 - 435.900 CW/SSB
KITSAT 1 31 Oct 13:34:59 13:41:01 22° 326° (NW) 13:47:05 435.175 FM
UOSAT-12 31 Oct 13:36:05 13:40:39 56° 307° (NW) 13:45:18 437.025 FM, 437.400 FM
Sapphire 31 Oct 13:40:26 13:41:07 10° 259° (W) 13:41:47 437.095 MHz 1200 baud AX-25 AFSK
AO-27 31 Oct 13:57:42 14:02:50 63° 72° (ENE) 14:08:01 436.795 MHz FM
Oscar 16 31 Oct 14:08:54 14:13:46 42° 261° (W) 14:18:39 437.025 USB, Beacon 2401.1428
Saudisat 1A 31 Oct 14:10:46 14:14:58 41° 51° (NE) 14:19:09 436.775 MHz
Gurwin Techsat 1B 31 Oct 14:13:18 14:18:20 46° 70° (ENE) 14:23:24 435.225 FM
TMSAT-1 31 Oct 14:19:51 14:24:44 39° 69° (ENE) 14:29:38 436.925 FM
ISS 31 Oct 14:31:19 14:33:35 17° 11° (N) 14:35:50 145.800 FM
Uribyol 2 31 Oct 14:41:37 14:46:40 50° 260° (W) 14:51:46 436.500 FM
AO-Echo 31 Oct 14:43:54 14:48:32 39° 263° (W) 14:53:21 ?
ITAMSAT 1 31 Oct 14:49:42 14:54:40 45° 261° (W) 14:59:41 435.822 SSB
AO-7 31 Oct 14:58:29 15:05:47 36° 59° (ENE) 15:13:05 29.400 - 29.500 MHz
Uosat F 31 Oct 14:59:18 15:01:47 14° 59° (ENE) 15:04:16 435.120 FM
Oscar 19 31 Oct 15:03:46 15:06:25 14° 270° (W) 15:09:04 437.125 CW, 437.150 USB
UOSAT-12 31 Oct 15:20:30 15:21:51 11° 327° (NNW) 15:23:12 437.025 FM, 437.400 FM
JAS-1B 31 Oct 15:28:53 15:30:56 12° 272° (W) 15:32:59 435.800 - 435.900 CW/SSB
KITSAT 1 31 Oct 15:38:07 15:40:14 11° 356° (N) 15:42:20 435.175 FM
AO-27 31 Oct 15:39:37 15:42:46 16° 269° (W) 15:45:57 436.795 MHz FM
Saudisat 1A 31 Oct 15:50:53 15:54:17 22° 248° (WSW) 15:57:39 436.775 MHz
Gurwin Techsat 1B 31 Oct 15:54:23 15:58:30 23° 267° (W) 16:02:38 435.225 FM
JAS-2 31 Oct 15:55:19 15:59:41 19° 55° (NE) 16:04:22 435.800 - 435.900 CW/SSB, 435.910 FM
TMSAT-1 31 Oct 16:00:19 16:04:44 27° 265° (W) 16:09:10 436.925 FM
ISS 31 Oct 16:07:36 16:10:52 49° 31° (NNE) 16:14:07 145.800 FM
Uosat F 31 Oct 16:34:52 16:39:54 78° 256° (WSW) 16:44:58 435.120 FM
AO-7 31 Oct 16:50:13 16:58:14 54° 258° (WSW) 17:06:20 29.400 - 29.500 MHz
OPAL 31 Oct 17:05:54 17:08:36 15° 93° (E) 17:11:17 ?
KITSAT 1 31 Oct 17:34:38 17:39:47 18° 27° (NNE) 17:44:56 435.175 FM
JAS-2 31 Oct 17:37:23 17:43:40 85° 256° (WSW) 17:50:51 435.800 - 435.900 CW/SSB, 435.910 FM
Hamsat 31 Oct 17:41:14 17:45:23 69° 76° (ENE) 17:49:33 145.90 MHz
ISS 31 Oct 17:44:48 17:47:20 20° 227° (SW) 17:49:52 145.800 FM
SO-50 31 Oct 18:04:39 18:06:24 12° 34° (NNE) 18:08:08 436.795 FM
SO-67 31 Oct 18:25:16 18:27:59 22° 70° (ENE) 18:30:42 435.3500 MHz FM
OPAL 31 Oct 18:43:00 18:47:54 64° 289° (WNW) 18:52:47 ?
STRAND 1 31 Oct 19:01:09 19:05:37 29° 96° (E) 19:10:02 ?
HO-68 31 Oct 19:07:34 19:11:58 18° 53° (NE) 19:16:22 435.675 MHz FM
JAS-2 31 Oct 19:27:04 19:29:58 13° 277° (W) 19:33:00 435.800 - 435.900 CW/SSB, 435.910 FM
KITSAT 1 31 Oct 19:29:17 19:37:13 56° 53° (NE) 19:45:06 435.175 FM
SO-50 31 Oct 19:43:10 19:47:58 58° 54° (NE) 19:52:47 436.795 FM
SO-67 31 Oct 19:58:19 20:00:53 20° 266° (W) 20:03:27 435.3500 MHz FM
AO-40 31 Oct 20:23:05 21:20:09 12° 106° (ESE) 22:01:12 Beacon 2401.320
UOSAT-12 31 Oct 20:26:13 20:29:43 20° 42° (NE) 20:33:11 437.025 FM, 437.400 FM
Oscar 11 31 Oct 20:26:14 20:27:58 12° 62° (ENE) 20:29:43 145.825 FM, Beacon 2401.500 USB
STRAND 1 31 Oct 20:40:10 20:44:48 34° 292° (WNW) 20:49:23 ?
RS-15 31 Oct 20:48:59 20:59:38 58° 113° (ESE) 21:10:11 29.354 - 29.394 USB, Beacon 29.352 USB
HO-68 31 Oct 20:51:28 20:58:38 84° 72° (ENE) 21:05:52 435.675 MHz FM
UKube-1 31 Oct 21:24:37 21:28:52 56° 73° (ENE) 21:33:09 145.840 MHz, 145.915 MHz
SO-50 31 Oct 21:24:49 21:28:06 18° 250° (WSW) 21:31:23 436.795 FM
KITSAT 1 31 Oct 21:25:11 21:32:16 35° 252° (WSW) 21:39:20 435.175 FM
ZACube-1 31 Oct 21:34:43 21:38:36 29° 69° (ENE) 21:42:26 437.345 MHz
Oscar 11 31 Oct 21:59:19 22:03:36 66° 259° (W) 22:07:54 145.825 FM, Beacon 2401.500 USB
UOSAT-12 31 Oct 22:05:37 22:10:17 63° 241° (WSW) 22:14:51 437.025 FM, 437.400 FM
FUNcube-1 31 Oct 22:16:44 22:21:16 81° 76° (ENE) 22:25:43 145.950 - 145.970 MHz USB
MaSat-1 31 Oct 22:22:56 22:26:48 70° 296° (WNW) 22:30:18 437.345 MHz
HO-68 31 Oct 22:42:42 22:47:08 17° 270° (W) 22:51:37 435.675 MHz FM
RS-15 31 Oct 23:01:56 23:12:17 46° 317° (NW) 23:22:44 29.354 - 29.394 USB, Beacon 29.352 USB
UKube-1 31 Oct 23:03:19 23:05:24 13° 269° (W) 23:07:28 145.840 MHz, 145.915 MHz
ZACube-1 31 Oct 23:11:06 23:14:56 27° 265° (W) 23:18:44 437.345 MHz
Sapphire 01 Nov 00:55:44 00:57:37 12° 102° (ESE) 00:59:29 437.095 MHz 1200 baud AX-25 AFSK
PCSat 01 Nov 01:15:01 01:18:55 21° 106° (ESE) 01:22:50 145.825 MHz
JAS-1B 01 Nov 01:15:57 01:21:50 25° 94° (E) 01:28:26 435.800 - 435.900 CW/SSB
RS-15 01 Nov 01:20:35 01:28:29 22° 350° (N) 01:36:30 29.354 - 29.394 USB, Beacon 29.352 USB
Oscar 19 01 Nov 01:33:37 01:37:42 24° 94° (E) 01:41:46 437.125 CW, 437.150 USB
AO-27 01 Nov 02:11:24 02:15:26 22° 93° (E) 02:19:25 436.795 MHz FM
Oscar 16 01 Nov 02:20:04 02:25:11 67° 102° (ESE) 02:30:16 437.025 USB, Beacon 2401.1428
Gurwin Techsat 1B 01 Nov 02:30:20 02:33:54 18° 91° (E) 02:37:27 435.225 FM
Sapphire 01 Nov 02:34:47 02:40:12 89° 299° (WNW) 02:45:40 437.095 MHz 1200 baud AX-25 AFSK
TMSAT-1 01 Nov 02:36:48 02:39:47 15° 90° (E) 02:42:45 436.925 FM
AO-Echo 01 Nov 02:50:25 02:55:45 70° 102° (ESE) 03:00:59 ?
Uribyol 2 01 Nov 02:54:04 02:59:13 58° 101° (E) 03:04:18 436.500 FM
PCSat 01 Nov 02:56:34 03:01:53 56° 303° (WNW) 03:07:14 145.825 MHz
ITAMSAT 1 01 Nov 03:02:09 03:07:21 65° 102° (ESE) 03:12:30 435.822 SSB
JAS-1B 01 Nov 03:05:35 03:12:40 69° 288° (WNW) 03:21:09 435.800 - 435.900 CW/SSB
Oscar 19 01 Nov 03:12:24 03:17:11 41° 290° (WNW) 03:21:57 437.125 CW, 437.150 USB
